sat.trackr.live / text

‹ back to catalog

STARLINK-11259 [DTC]

NORAD 60721 · 2024-152B

PAYLOAD ACTIVE UNKNOWN

§ Identity

Operator
Country
US
Launch date
2024-08-28
Launch site
AFETR
Launch vehicle
Mass (kg)
RCS (m²)

Purposes: comms

External: N2YO · Heavens-Above · Gunter

§ Orbital elements

Epoch: 2026-09-21T22:22:06.568608Z

Period
91.74 min
Inclination
53.1598°
Eccentricity
0.0000755
Mean motion
15.69709436 rev/d
Perigee alt
359.2 km
Apogee alt
360.2 km
Semi-major
6,737.9 km
B*
7.1540e-6
RAAN
229.1109°
Arg perigee
94.1144°
Mean anomaly
265.9960°
Rev number
11,965

§ Raw data

STARLINK-11259 [DTC]1 60721U 24152B   26264.93202047  .00000279  00000+0  71540-5 0  99962 60721  53.1598 229.1109 0000755  94.1144 265.9960 15.69709436119652

JSON: /api/v1/satellites/60721 · /tle

For live sub-satellite position, see the globe view (requires WebGL).

§ Visibility from observer

Set your observer location to see the next 7 days of passes ≥ 10°. The values pass through the URL so the page stays shareable.

No JS? Fill the form by hand. The geolocation button needs JavaScript.